• Em Portugal
  • Lista de países
  • Para 7 dias
  • Temperatura da água
  • Mapas de satélite
  • Mapa do tempo
  • Widgets de tempo
  • user-avatar
    Iniciar Sessão

    Previsão horária em Chernoruche

    Hoje, 25 Setembro, Terça-feira

    Tempo Temperatura Precipitação Vento Pressão Humidade
    00:00 +5°C° 0 mm 5 m/s 744 mmHg 91%
    01:00 +5°C° 0 mm 4 m/s 744 mmHg 92%
    02:00 +4°C° 0 mm 4 m/s 745 mmHg 93%
    03:00 +4°C° 0 mm 4 m/s 745 mmHg 93%
    04:00 +4°C° 0 mm 4 m/s 746 mmHg 94%
    05:00 +2°C° 0 mm 5 m/s 746 mmHg 94%
    06:00 +3°C° 0 mm 5 m/s 747 mmHg 91%
    07:00 +3°C° 0 mm 5 m/s 748 mmHg 89%
    08:00 +3°C° 0 mm 5 m/s 748 mmHg 86%
    09:00 +5°C° 0 mm 5 m/s 749 mmHg 81%
    10:00 +6°C° 0 mm 5 m/s 749 mmHg 75%
    11:00 +7°C° 0 mm 6 m/s 750 mmHg 70%
    12:00 +8°C° 0.1 mm 6 m/s 750 mmHg 64%
    13:00 +8°C° 0.1 mm 6 m/s 751 mmHg 58%
    14:00 +9°C° 0 mm 6 m/s 752 mmHg 51%
    15:00 +9°C° 0 mm 5 m/s 752 mmHg 54%
    16:00 +8°C° 0 mm 5 m/s 753 mmHg 56%
    17:00 +7°C° 0 mm 4 m/s 753 mmHg 58%
    18:00 +6°C° 0 mm 4 m/s 754 mmHg 60%
    19:00 +5°C° 0 mm 4 m/s 754 mmHg 62%
    20:00 +4°C° 0 mm 3 m/s 755 mmHg 63%
    21:00 +4°C° 0 mm 3 m/s 756 mmHg 66%
    22:00 +3°C° 0 mm 3 m/s 756 mmHg 70%
    23:00 +3°C° 0 mm 3 m/s 757 mmHg 73%

    Amanhã, 26 Setembro, Quarta-feira

    Tempo Temperatura Precipitação Vento Pressão Humidade
    00:00 +3°C° 0 mm 3 m/s 757 mmHg 77%
    01:00 +3°C° 0 mm 3 m/s 758 mmHg 80%
    02:00 +2°C° 0 mm 3 m/s 758 mmHg 84%
    03:00 +2°C° 0 mm 3 m/s 758 mmHg 85%
    04:00 +2°C° 0 mm 3 m/s 758 mmHg 85%
    05:00 +2°C° 0 mm 3 m/s 758 mmHg 85%
    06:00 +3°C° 0 mm 4 m/s 758 mmHg 80%
    07:00 +4°C° 0 mm 4 m/s 758 mmHg 76%
    08:00 +5°C° 0 mm 5 m/s 758 mmHg 71%
    09:00 +6°C° 0 mm 5 m/s 758 mmHg 67%
    10:00 +8°C° 0 mm 6 m/s 758 mmHg 63%
    11:00 +10°C° 0 mm 6 m/s 757 mmHg 60%
    12:00 +10°C° 0 mm 6 m/s 757 mmHg 61%
    13:00 +10°C° 0 mm 7 m/s 756 mmHg 62%
    14:00 +10°C° 0 mm 7 m/s 755 mmHg 63%
    15:00 +9°C° 0.4 mm 7 m/s 754 mmHg 69%
    16:00 +8°C° 0.4 mm 7 m/s 753 mmHg 75%
    17:00 +6°C° 0.4 mm 8 m/s 753 mmHg 81%
    18:00 +6°C° 0.7 mm 8 m/s 752 mmHg 83%
    19:00 +6°C° 0.7 mm 8 m/s 751 mmHg 85%
    20:00 +5°C° 0.7 mm 9 m/s 750 mmHg 86%
    21:00 +5°C° 0.4 mm 9 m/s 749 mmHg 87%
    22:00 +5°C° 0.4 mm 9 m/s 748 mmHg 87%
    23:00 +6°C° 0.4 mm 9 m/s 746 mmHg 88%

    Depois de amanhã, 27 Setembro, Quinta-feira

    Tempo Temperatura Precipitação Vento Pressão Humidade
    00:00 +6°C° 0.3 mm 9 m/s 746 mmHg 88%
    01:00 +6°C° 0.3 mm 9 m/s 745 mmHg 88%
    02:00 +7°C° 0.3 mm 9 m/s 745 mmHg 89%
    03:00 +7°C° 0.7 mm 8 m/s 744 mmHg 90%
    04:00 +9°C° 0.7 mm 7 m/s 744 mmHg 90%
    05:00 +10°C° 0.7 mm 7 m/s 744 mmHg 91%
    06:00 +9°C° 0.3 mm 5 m/s 745 mmHg 88%
    07:00 +10°C° 0.3 mm 4 m/s 745 mmHg 86%
    08:00 +10°C° 0.3 mm 3 m/s 745 mmHg 83%
    09:00 +11°C° 0 mm 4 m/s 746 mmHg 74%
    10:00 +12°C° 0 mm 5 m/s 746 mmHg 66%
    11:00 +14°C° 0 mm 6 m/s 746 mmHg 57%
    12:00 +14°C° 0 mm 6 m/s 747 mmHg 55%
    13:00 +14°C° 0 mm 6 m/s 747 mmHg 53%
    14:00 +15°C° 0 mm 7 m/s 747 mmHg 51%
    15:00 +14°C° 0 mm 6 m/s 747 mmHg 55%
    16:00 +13°C° 0 mm 5 m/s 747 mmHg 59%
    17:00 +12°C° 0 mm 4 m/s 747 mmHg 63%
    18:00 +11°C° 0 mm 4 m/s 747 mmHg 67%
    19:00 +10°C° 0 mm 4 m/s 747 mmHg 70%
    20:00 +8°C° 0 mm 4 m/s 748 mmHg 74%
    21:00 +9°C° 0.1 mm 5 m/s 747 mmHg 76%
    22:00 +9°C° 0.1 mm 5 m/s 746 mmHg 79%
    23:00 +10°C° 0.1 mm 6 m/s 745 mmHg 81%

    28 Setembro, Sexta-feira

    Tempo Temperatura Precipitação Vento Pressão Humidade
    00:00 +11°C° 0.2 mm 7 m/s 744 mmHg 82%
    01:00 +12°C° 0.2 mm 8 m/s 743 mmHg 84%
    02:00 +13°C° 0.2 mm 8 m/s 742 mmHg 85%
    03:00 +13°C° 0.3 mm 8 m/s 741 mmHg 86%
    04:00 +13°C° 0.3 mm 8 m/s 741 mmHg 86%
    05:00 +13°C° 0.3 mm 8 m/s 740 mmHg 86%
    06:00 +12°C° 0.7 mm 8 m/s 740 mmHg 86%
    07:00 +12°C° 0.7 mm 8 m/s 740 mmHg 85%
    08:00 +12°C° 0.7 mm 8 m/s 741 mmHg 85%
    09:00 +12°C° 0.2 mm 7 m/s 741 mmHg 81%
    10:00 +11°C° 0.2 mm 7 m/s 742 mmHg 76%
    11:00 +11°C° 0.2 mm 7 m/s 743 mmHg 72%
    12:00 +11°C° 0.1 mm 6 m/s 744 mmHg 69%
    13:00 +12°C° 0.1 mm 5 m/s 745 mmHg 66%
    14:00 +12°C° 0.1 mm 4 m/s 745 mmHg 63%
    15:00 +11°C° 0 mm 3 m/s 746 mmHg 65%
    16:00 +11°C° 0 mm 3 m/s 746 mmHg 67%
    17:00 +10°C° 0 mm 2 m/s 747 mmHg 69%
    18:00 +9°C° 0 mm 2 m/s 747 mmHg 73%
    19:00 +8°C° 0 mm 2 m/s 748 mmHg 77%
    20:00 +7°C° 0 mm 2 m/s 748 mmHg 81%
    21:00 +7°C° 0 mm 2 m/s 749 mmHg 84%
    22:00 +6°C° 0 mm 2 m/s 749 mmHg 87%
    23:00 +6°C° 0 mm 2 m/s 750 mmHg 91%

    29 Setembro, Sábado

    Tempo Temperatura Precipitação Vento Pressão Humidade
    00:00 +5°C° 0 mm 2 m/s 750 mmHg 92%
    01:00 +5°C° 0 mm 2 m/s 751 mmHg 93%
    02:00 +4°C° 0 mm 2 m/s 751 mmHg 95%
    03:00 +4°C° 0 mm 2 m/s 752 mmHg 94%
    04:00 +3°C° 0 mm 2 m/s 752 mmHg 93%
    05:00 +3°C° 0 mm 2 m/s 753 mmHg 92%
    06:00 +3°C° 0 mm 2 m/s 753 mmHg 87%
    07:00 +4°C° 0 mm 2 m/s 754 mmHg 81%
    08:00 +5°C° 0 mm 2 m/s 755 mmHg 75%
    09:00 +6°C° 0 mm 2 m/s 755 mmHg 66%
    10:00 +8°C° 0 mm 2 m/s 756 mmHg 57%
    11:00 +9°C° 0 mm 2 m/s 756 mmHg 47%
    12:00 +9°C° 0 mm 2 m/s 757 mmHg 45%
    13:00 +10°C° 0 mm 2 m/s 757 mmHg 42%
    14:00 +10°C° 0 mm 2 m/s 757 mmHg 40%
    15:00 +10°C° 0 mm 2 m/s 757 mmHg 45%
    16:00 +10°C° 0 mm 1 m/s 757 mmHg 49%
    17:00 +9°C° 0 mm 1 m/s 757 mmHg 54%
    18:00 +8°C° 0 mm 1 m/s 758 mmHg 56%
    19:00 +6°C° 0 mm 1 m/s 758 mmHg 58%
    20:00 +5°C° 0 mm 1 m/s 758 mmHg 60%
    21:00 +5°C° 0 mm 1 m/s 759 mmHg 62%
    22:00 +5°C° 0 mm 1 m/s 759 mmHg 63%
    23:00 +4°C° 0 mm 1 m/s 759 mmHg 64%

    30 Setembro, Domingo

    Tempo Temperatura Precipitação Vento Pressão Humidade
    00:00 +4°C° 0 mm 1 m/s 759 mmHg 65%
    01:00 +3°C° 0 mm 2 m/s 759 mmHg 67%
    02:00 +2°C° 0 mm 2 m/s 759 mmHg 68%
    03:00 +2°C° 0 mm 2 m/s 759 mmHg 70%
    04:00 +2°C° 0 mm 2 m/s 759 mmHg 71%
    05:00 +2°C° 0 mm 2 m/s 759 mmHg 72%
    06:00 +2°C° 0 mm 3 m/s 759 mmHg 70%
    07:00 +3°C° 0 mm 3 m/s 759 mmHg 67%
    08:00 +4°C° 0 mm 3 m/s 759 mmHg 64%
    09:00 +5°C° 0 mm 4 m/s 759 mmHg 60%
    10:00 +7°C° 0 mm 4 m/s 758 mmHg 55%
    11:00 +9°C° 0 mm 5 m/s 758 mmHg 51%
    12:00 +9°C° 0 mm 5 m/s 758 mmHg 50%
    13:00 +10°C° 0 mm 5 m/s 757 mmHg 50%
    14:00 +12°C° 0 mm 5 m/s 756 mmHg 49%
    15:00 +11°C° 0 mm 4 m/s 756 mmHg 55%
    16:00 +10°C° 0 mm 4 m/s 756 mmHg 60%
    17:00 +9°C° 0 mm 3 m/s 755 mmHg 66%
    18:00 +8°C° 0 mm 3 m/s 755 mmHg 71%
    19:00 +7°C° 0 mm 3 m/s 755 mmHg 77%
    20:00 +5°C° 0 mm 3 m/s 755 mmHg 83%
    21:00 +5°C° 0 mm 3 m/s 755 mmHg 84%
    22:00 +5°C° 0 mm 3 m/s 755 mmHg 85%
    23:00 +5°C° 0 mm 3 m/s 755 mmHg 86%
    Mostrar mais